Location: Lecco
(45.8566°N, 9.3977°E)
Time: 01:46:46
(UTC+02:00)

A-11 Canister half - Visible Passes

Search period start: 09 May 2021 00:00
Search period end: 19 May 2021 00:00
Orbit: 1514 x 1685 km, 47.2° (Epoch: 07 May)

Date Brightness Start Highest point End Pass type
(mag) Time Alt. Az. Time Alt. Az. Time Alt. Az.
09 May 10.6 01:42:25 10° W 01:45:15 14° WSW 01:45:15 14° WSW visible
09 May 9.1 21:06:59 10° WNW 21:16:20 90° SSE 21:25:58 10° ESE visible
09 May 9.3 23:11:56 10° WNW 23:20:51 50° SW 23:25:09 32° SSE visible
10 May 10.5 01:19:05 10° W 01:23:20 15° WSW 01:23:20 15° WSW visible
10 May 9.3 22:49:01 10° WNW 22:57:59 52° SW 23:03:16 27° SSE visible
11 May 10.4 00:55:49 10° W 01:01:15 17° SW 01:01:27 17° SW visible
11 May 9.3 22:26:07 10° WNW 22:35:06 54° SW 22:41:25 22° SSE visible
12 May 10.3 00:32:37 10° W 00:38:27 18° SW 00:39:36 18° SW visible
12 May 9.3 22:03:12 10° WNW 22:12:13 57° SSW 22:19:36 18° SE visible
13 May 10.3 00:09:28 10° W 00:15:39 20° SW 00:17:47 18° SW visible
13 May 9.3 21:40:17 10° WNW 21:49:21 59° SSW 21:57:50 13° SE visible
13 May 10.3 23:46:21 10° W 23:52:50 21° SW 23:56:01 18° SSW visible
14 May 9.3 21:17:22 10° WNW 21:26:29 62° SSW 21:35:48 10° SE visible
14 May 10.3 23:23:16 10° W 23:30:01 23° SW 23:34:18 17° SSW visible
15 May 10.3 23:00:13 10° W 23:07:13 24° SW 23:12:36 15° S visible
16 May 10.2 22:37:10 10° W 22:44:24 26° SW 22:50:57 12° S visible
17 May 10.2 22:14:09 10° W 22:21:34 28° SW 22:29:10 10° S visible
18 May 10.2 21:51:09 10° WNW 21:58:45 29° SW 22:06:31 10° S visible
